Change the Weather History Date:

Tuesday, October 16, 2012

  Actual Average Record
Temperature  
Mean Temperature 66 °F -  
Max Temperature 82 °F 70 °F 87 °F (2011)
Min Temperature 50 °F 51 °F 48 °F (1997)
Cooling Degree Days 1    
Growing Degree Days 16 (Base 50)    
Moisture  
Dew Point 47 °F    
Average Humidity 57    
Maximum Humidity 82    
Minimum Humidity 28    
Precipitation  
Precipitation 0.00 in - - ()
Sea Level Pressure  
Sea Level Pressure 29.99 in    
Wind  
Wind Speed 3 mph ()    
Max Wind Speed 8 mph    
Max Gust Speed -    
Averages and records for this station are not official NWS values.
T = Trace of Precipitation, MM = Missing Value Source: Averaged Metar Reports

Daily Weather History Graph

Daily Weather History Graph

Search for Another Location

Airport or City:

Trip Planner

Search our weather history database for the weather conditions in past years. The results will help you decide how hot, cold, wet, or windy it might be!

Date:

Astronomy

Oct. 16, 2012 Rise Set
Actual Time 8:31 AM CEST 7:43 PM CEST
Civil Twilight 8:05 AM CEST 8:10 PM CEST
Nautical Twilight 7:34 AM CEST 8:40 PM CEST
Astronomical Twilight 7:04 AM CEST 9:10 PM CEST
Moon 9:34 AM CEST (10/16) 8:20 PM CEST (10/16)
Length of Visible Light 12h 04m
Length of Day
11h 12m
New Moon, 1% of the Moon is Illuminated
Oct 16
New Moon
Oct 22
First Quarter
Oct 29
Full
Nov 7
Last Quarter
Nov 13
New

Hourly Weather History & Observations

Time (CEST) Temp. Dew Point Humidity Pressure Visibility Wind Dir Wind Speed Gust Speed Precip Events Conditions
12:00 AM 59.0 °F 48.2 °F 67% 30.04 in - Variable 3.5 mph - N/A   Clear
1:00 AM 57.2 °F 46.4 °F 67% 30.04 in - ESE 2.3 mph - N/A   Clear
2:00 AM 55.4 °F 46.4 °F 72% 30.01 in - East 2.3 mph - N/A   Clear
3:00 AM 53.6 °F 46.4 °F 77% 30.01 in - ESE 2.3 mph - N/A   Clear
4:00 AM 53.6 °F 44.6 °F 72% 30.01 in - SE 3.5 mph - N/A   Clear
5:00 AM 51.8 °F 44.6 °F 76% 30.01 in - SE 5.8 mph - N/A   Clear
6:00 AM 51.8 °F 44.6 °F 76% 29.98 in - Calm Calm - N/A   Clear
7:00 AM 50.0 °F 44.6 °F 82% 30.01 in - North 2.3 mph - N/A   Clear
8:00 AM 51.8 °F 44.6 °F 76% 30.01 in - East 1.2 mph - N/A   Clear
9:00 AM 50.0 °F 44.6 °F 82% 30.04 in - Calm Calm - N/A   Clear
10:00 AM 51.8 °F 46.4 °F 82% 30.04 in - Variable 2.3 mph - N/A   Clear
11:00 AM 64.4 °F 48.2 °F 56% 30.04 in - NE 5.8 mph - N/A   Clear
12:00 PM 69.8 °F 46.4 °F 43% 30.04 in - ENE 3.5 mph - N/A   Clear
1:00 PM 73.4 °F 48.2 °F 41% 30.04 in - ENE 3.5 mph - N/A   Clear
2:00 PM 77.0 °F 46.4 °F 34% 30.01 in - Variable 1.2 mph - N/A   Clear
3:00 PM 78.8 °F 48.2 °F 34% 29.98 in - Variable 1.2 mph - N/A   Clear
4:00 PM 82.4 °F 46.4 °F 28% 29.95 in - Variable 1.2 mph - N/A   Clear
5:00 PM 82.4 °F 48.2 °F 30% 29.92 in - SW 5.8 mph - N/A   Clear
6:00 PM 80.6 °F 50.0 °F 34% 29.92 in - WNW 8.1 mph - N/A   Clear
7:00 PM 78.8 °F 48.2 °F 34% 29.92 in - WNW 6.9 mph - N/A   Clear
8:00 PM 71.6 °F 48.2 °F 43% 29.92 in - NNW 3.5 mph - N/A   Clear
9:00 PM 68.0 °F 46.4 °F 46% 29.95 in - Variable 2.3 mph - N/A   Clear
10:00 PM 62.6 °F 44.6 °F 52% 29.95 in - Variable 1.2 mph - N/A   Clear
11:00 PM 64.4 °F 48.2 °F 56% 29.95 in - South 5.8 mph - N/A   Clear